Stations météo

réclame
Mon MeteoGroup
Benavente, Espagne (8056): Température de l'air & dewpoint: 11.12.2018 02:00:00 - 17.12.2018 02:00:00 (CET)Benavente, Espagne (8056): Vitesse du vent & gusts: 11.12.2018 02:00:00 - 17.12.2018 02:00:00 (CET)Benavente, Espagne (8056): Direction du vent: 11.12.2018 02:00:00 - 17.12.2018 02:00:00 (CET)Benavente, Espagne (8056): reduced air pressure: 11.12.2018 02:00:00 - 17.12.2018 02:00:00 (CET)Benavente, Espagne (8056): visibility: 11.12.2018 02:00:00 - 17.12.2018 02:00:00 (CET)Benavente, Espagne (8056): Ensoleillement: 11.12.2018 02:00:00 - 17.12.2018 02:00:00 (CET)Benavente, Espagne (8056): Quantités de précipitations: 11.12.2018 02:00:00 - 17.12.2018 02:00:00 (CET)
Date & Time tt [°C] td [°C] ff [km/h] ff [knt] fx [km/h] fx [knt] dd ppp [hPa] vv [km] sd [min] rr [mm]
17.12.2018 02:00:00 - - - - - - - - - - -
17.12.2018 01:00:00 3,0 0,2 8 4 14 7 W 1029,6 20 0 -
17.12.2018 00:00:00 2,0 -0,5 3 2 9 5 SW 1029,2 20 0 0,0
16.12.2018 23:00:00 3,8 0,2 6 4 19 11 WSW 1028,5 20 0 0,0
16.12.2018 22:00:00 4,8 0,6 8 5 22 12 WSW 1027,4 20 0 0,0
16.12.2018 21:00:00 5,1 0,6 6 4 21 12 W 1026,8 20 0 0,0
16.12.2018 20:00:00 5,4 0,9 9 5 19 10 WSW 1025,8 20 0 0,0
16.12.2018 19:00:00 5,8 0,6 5 3 19 11 WNW 1024,7 20 0 -
16.12.2018 18:00:00 7,3 0,9 11 6 29 16 W 1022,8 20 5 0,0
16.12.2018 17:00:00 8,7 1,3 14 8 37 20 W 1021,3 20 60 0,0
16.12.2018 16:00:00 9,2 0,9 14 8 41 22 W 1020,0 20 41 0,0
16.12.2018 15:00:00 9,9 2,5 20 11 44 24 W 1019,1 20 53 0,0
16.12.2018 14:00:00 8,4 3,6 12 6 39 21 WSW 1019,2 20 0 0,0
16.12.2018 13:00:00 9,1 3,9 18 10 50 27 W 1019,0 20 11 -
16.12.2018 12:00:00 10,1 3,2 14 8 47 26 W 1018,4 20 36 0,0
16.12.2018 11:00:00 9,7 5,1 16 9 40 21 WSW 1017,8 20 59 0,0
16.12.2018 10:00:00 8,7 5,8 12 6 32 17 WSW 1017,1 20 30 0,0
16.12.2018 09:00:00 8,3 6,7 10 5 22 12 SSW 1016,1 20 0 0,0
16.12.2018 08:00:00 8,9 6,5 10 6 27 14 SW 1016,1 20 0 0,0
16.12.2018 07:00:00 8,8 6,5 7 4 19 10 W 1016,6 20 0 -
16.12.2018 06:00:00 9,4 8,0 11 6 24 13 SW 1016,0 15 0 1,6
16.12.2018 05:00:00 9,4 7,8 11 6 27 15 SW 1016,4 20 0 1,0
16.12.2018 04:00:00 9,3 7,8 9 5 23 13 SSW 1017,2 20 0 1,2
16.12.2018 03:00:00 9,5 8,0 14 7 34 18 SW 1017,8 9 0 2,4
16.12.2018 02:00:00 9,4 7,8 13 7 29 16 SSW 1018,0 20 0 0,4
16.12.2018 01:00:00 9,5 8,0 13 7 29 15 SSW 1018,9 20 0 -
16.12.2018 00:00:00 9,5 8,1 11 6 32 17 SSW 1019,5 20 0 0,0
15.12.2018 23:00:00 9,6 8,0 12 7 30 16 SSW 1020,2 15 0 0,6
15.12.2018 22:00:00 9,7 7,8 14 7 30 16 SSW 1020,8 20 0 0,0
15.12.2018 21:00:00 9,5 7,8 13 7 32 18 SSW 1021,3 20 0 0,0
15.12.2018 20:00:00 9,2 7,4 10 5 31 17 SSW 1021,9 12 0 0,0
15.12.2018 19:00:00 9,5 8,0 10 6 21 12 S 1022,0 20 0 -
15.12.2018 18:00:00 9,8 7,7 11 6 23 12 SSW 1022,5 20 0 0,0
15.12.2018 17:00:00 10,2 7,6 12 7 32 17 SW 1022,4 13 0 0,0
15.12.2018 16:00:00 10,4 7,3 18 10 38 20 SW 1022,0 20 0 0,0
15.12.2018 15:00:00 11,0 7,3 16 9 37 20 SW 1021,6 20 12 0,0
15.12.2018 14:00:00 11,8 7,7 13 7 24 13 SW 1021,8 20 17 0,0
15.12.2018 13:00:00 9,4 7,6 8 4 25 13 SSW 1023,9 20 0 -
15.12.2018 12:00:00 8,8 7,4 7 4 22 12 SSW 1024,9 12 0 0,0
15.12.2018 11:00:00 8,7 7,1 8 5 26 14 SSW 1025,1 20 0 0,0
15.12.2018 10:00:00 8,0 6,8 13 7 29 16 SSW 1025,0 20 0 0,0
15.12.2018 09:00:00 7,7 6,5 8 4 27 15 SSW 1024,8 20 0 0,4
15.12.2018 08:00:00 7,5 6,2 11 6 24 13 SSW 1024,3 20 0 0,6
15.12.2018 07:00:00 7,4 6,1 13 7 27 15 SSW 1024,6 17 0 -
15.12.2018 06:00:00 7,5 5,9 6 3 16 9 SSW 1024,4 16 0 0,6
15.12.2018 05:00:00 7,0 5,6 7 4 18 10 S 1024,9 15 0 0,0
15.12.2018 04:00:00 7,1 5,3 9 5 24 13 SSW 1025,3 9 0 0,0
15.12.2018 03:00:00 7,0 5,0 10 5 21 11 SSW 1025,4 19 0 0,0
15.12.2018 02:00:00 6,6 4,8 6 4 14 8 SSW 1025,5 20 0 0,0
15.12.2018 01:00:00 6,0 3,9 4 2 13 7 SSW 1026,0 20 0 -
15.12.2018 00:00:00 4,1 2,1 2 1 8 4 SW 1026,4 20 0 0,0
14.12.2018 23:00:00 5,4 2,5 0 0 13 7 N 1026,0 20 0 0,0
14.12.2018 22:00:00 6,3 3,4 6 3 13 7 SSW 1025,6 20 0 0,0
14.12.2018 21:00:00 6,6 3,2 7 4 13 7 SW 1025,8 20 0 0,0
14.12.2018 20:00:00 6,5 3,0 6 3 14 7 W 1026,0 20 0 0,0
14.12.2018 19:00:00 7,0 3,0 6 4 18 10 WSW 1025,5 20 0 -
14.12.2018 18:00:00 8,4 3,2 8 5 24 13 WSW 1024,6 20 0 0,0
14.12.2018 17:00:00 9,7 1,5 5 3 16 9 W 1023,7 20 10 0,0
14.12.2018 16:00:00 10,2 1,3 8 4 18 10 W 1023,4 20 17 0,0
14.12.2018 15:00:00 10,7 1,3 8 5 22 12 WNW 1022,9 20 54 0,0
14.12.2018 14:00:00 9,8 1,7 10 6 23 12 WNW 1023,9 20 23 0,0
14.12.2018 13:00:00 8,9 1,7 6 4 19 10 WNW 1024,2 20 23 -
14.12.2018 12:00:00 6,7 1,3 7 4 15 8 W 1025,4 20 0 0,0
14.12.2018 11:00:00 5,4 0,6 5 3 13 7 WSW 1025,5 20 3 0,0
14.12.2018 10:00:00 4,0 0,0 7 4 17 9 WSW 1024,7 20 0 0,0
14.12.2018 09:00:00 3,2 -0,3 7 4 12 7 W 1024,0 20 0 0,0
14.12.2018 08:00:00 3,0 -0,3 8 4 14 8 WNW 1023,3 20 0 0,0
14.12.2018 07:00:00 2,2 -1,0 6 3 11 6 WSW 1023,1 20 0 -
14.12.2018 06:00:00 2,6 -1,0 5 3 11 6 WSW 1022,7 20 0 0,0
14.12.2018 05:00:00 3,6 -0,7 6 3 17 9 NW 1021,8 20 0 0,0
14.12.2018 04:00:00 3,5 -0,5 8 5 15 8 W 1021,3 20 0 0,0
14.12.2018 03:00:00 3,1 -0,7 9 5 17 9 WNW 1021,0 20 0 0,0
14.12.2018 02:00:00 3,9 -0,5 9 5 17 9 W 1020,2 20 0 0,0
14.12.2018 01:00:00 3,1 -1,2 11 6 21 12 WNW 1020,5 20 0 -
14.12.2018 00:00:00 3,5 -1,4 8 4 13 7 WSW 1019,9 20 0 0,0
13.12.2018 23:00:00 4,0 -1,0 4 2 19 10 W 1019,9 20 0 0,0
13.12.2018 22:00:00 4,2 -1,0 10 5 20 11 WNW 1019,0 20 0 0,0
13.12.2018 21:00:00 4,7 -1,0 9 5 18 10 W 1018,2 20 0 0,0
13.12.2018 20:00:00 4,6 -0,7 8 4 25 14 W 1017,5 20 0 0,0
13.12.2018 19:00:00 4,8 -0,7 12 6 26 14 NW 1016,7 20 0 -
13.12.2018 18:00:00 5,7 -0,5 12 7 40 22 NW 1015,4 20 1 0,0
13.12.2018 17:00:00 7,0 -0,5 21 12 53 28 NW 1014,0 20 58 0,0
13.12.2018 16:00:00 8,6 -0,5 20 11 51 28 NW 1012,6 20 56 0,0
13.12.2018 15:00:00 8,9 -1,4 25 13 58 31 NW 1011,5 20 58 0,0
13.12.2018 14:00:00 9,1 -0,3 29 16 59 32 NW 1010,5 20 58 0,0
13.12.2018 13:00:00 8,2 1,3 21 11 45 24 WNW 1010,5 20 35 -
13.12.2018 12:00:00 7,3 1,9 15 8 32 17 NW 1010,4 20 24 0,0
13.12.2018 11:00:00 6,7 2,9 9 5 29 15 W 1009,7 20 34 0,0
13.12.2018 10:00:00 5,6 2,7 10 6 27 14 W 1009,6 20 22 0,0
13.12.2018 09:00:00 5,8 2,9 9 5 26 14 W 1008,7 20 0 0,0
13.12.2018 08:00:00 6,6 4,1 9 5 23 12 W 1007,3 20 0 0,2
13.12.2018 07:00:00 7,7 4,5 13 7 50 27 W 1006,7 20 0 -
13.12.2018 06:00:00 8,1 6,7 7 4 26 14 SSW 1005,9 7 0 0,4
13.12.2018 05:00:00 8,2 6,8 15 8 33 18 SSW 1006,6 20 0 0,0
13.12.2018 04:00:00 8,0 6,7 14 8 35 19 S 1007,7 13 0 0,0
13.12.2018 03:00:00 7,7 6,4 15 8 32 17 SSW 1008,9 13 0 0,2
13.12.2018 02:00:00 7,4 6,2 10 5 21 11 S 1010,9 6 0 0,8
13.12.2018 01:00:00 7,2 5,8 10 5 22 12 S 1012,5 6 0 -
13.12.2018 00:00:00 7,3 5,8 8 5 22 12 S 1013,8 8 0 0,2
12.12.2018 23:00:00 7,4 5,3 10 6 22 12 SSW 1015,2 18 0 0,0
12.12.2018 22:00:00 7,4 5,0 11 6 19 10 SSW 1016,0 18 0 0,0
12.12.2018 21:00:00 7,4 5,0 7 4 16 8 SSW 1016,4 20 0 0,0
12.12.2018 20:00:00 7,3 5,1 9 5 20 11 SSW 1017,4 17 0 0,0
12.12.2018 19:00:00 6,9 4,8 10 6 20 11 SW 1018,4 17 0 -
12.12.2018 18:00:00 5,6 4,1 4 2 13 7 SSW 1019,1 9 0 0,0
12.12.2018 17:00:00 5,1 3,4 6 3 12 7 ENE 1019,0 11 0 0,0
12.12.2018 16:00:00 4,9 3,4 5 3 15 8 NE 1020,1 10 0 0,0
12.12.2018 15:00:00 4,6 3,4 2 1 7 4 NNE 1021,1 8 0 0,0
12.12.2018 14:00:00 - - - - - - - - - - -
12.12.2018 13:00:00 - - - - - - - - - - -
12.12.2018 12:00:00 2,4 1,7 3 2 9 5 SW 1024,2 5 0 0,0
12.12.2018 11:00:00 1,2 0,4 3 2 11 6 E 1025,0 0,2 0 0,0
12.12.2018 10:00:00 0,1 -0,7 4 2 17 9 ENE 1025,7 0,1 0 0,0
12.12.2018 09:00:00 -0,3 -1,0 3 2 6 4 E 1025,8 0,7 0 0,0
12.12.2018 08:00:00 -0,5 -1,2 3 2 5 3 E 1025,9 0,1 0 0,0
12.12.2018 07:00:00 -0,5 -1,2 2 1 5 3 S 1026,0 0,1 0 -
12.12.2018 06:00:00 -0,6 -1,2 0 0 7 4 N 1025,5 0,2 0 0,0
12.12.2018 05:00:00 -0,8 -1,7 2 1 4 2 ENE 1026,2 0,1 0 0,0
12.12.2018 04:00:00 -0,7 -1,4 0 0 17 9 N 1026,5 3,4 0 0,0
12.12.2018 03:00:00 0,0 -1,0 3 1 5 3 NE - - 0 0,0
12.12.2018 02:00:00 1,4 0,4 3 1 4 2 SW 1025,4 0,3 0 0,0
12.12.2018 01:00:00 2,4 1,3 2 1 7 4 ESE 1025,5 3,9 0 -
12.12.2018 00:00:00 2,0 0,6 4 2 12 6 N 1025,4 3,7 0 0,0
11.12.2018 23:00:00 2,3 1,1 3 2 6 4 NNW 1025,3 5 0 0,0
11.12.2018 22:00:00 3,6 1,9 3 1 5 3 WSW 1024,6 5 0 0,0
11.12.2018 21:00:00 3,9 1,7 5 3 12 7 NNW 1024,8 6 0 0,0
11.12.2018 20:00:00 6,1 3,8 5 3 10 5 SW 1023,9 11 0 0,0
11.12.2018 19:00:00 6,2 3,0 1 1 5 3 S 1023,7 14 0 -
11.12.2018 18:00:00 7,4 3,4 2 1 13 7 S 1023,1 18 0 0,0
11.12.2018 17:00:00 8,2 3,8 7 4 13 7 S 1022,7 19 0 0,0
11.12.2018 16:00:00 9,0 3,6 4 2 9 5 S 1022,2 18 11 0,0
11.12.2018 15:00:00 9,2 3,4 5 3 10 5 SSW 1022,4 20 30 0,0
11.12.2018 14:00:00 8,4 3,2 4 2 8 4 S 1023,1 16 0 0,0
11.12.2018 13:00:00 7,6 3,0 2 1 9 5 SSE 1024,1 20 32 -
11.12.2018 12:00:00 5,8 2,9 3 1 12 6 N 1025,5 20 50 0,0
11.12.2018 11:00:00 3,0 1,3 1 1 5 3 NE 1026,6 20 14 0,0
11.12.2018 10:00:00 1,1 0,0 3 1 6 3 N 1027,3 20 0 0,0
11.12.2018 09:00:00 -0,6 -1,7 2 1 5 3 NW 1027,6 19 0 0,0
11.12.2018 08:00:00 -0,8 -2,0 1 1 6 3 NNE 1027,3 10 0 0,0
11.12.2018 07:00:00 -0,5 -1,7 4 2 11 6 NNW 1027,2 12 0 -
11.12.2018 06:00:00 0,0 -1,2 1 1 6 3 S 1027,2 7 0 0,0
11.12.2018 05:00:00 1,3 -0,3 3 2 16 9 NNW 1027,4 14 0 0,0
11.12.2018 04:00:00 1,7 0,4 5 3 10 5 NNW 1027,9 13 0 0,0
11.12.2018 03:00:00 1,3 -0,3 3 2 14 8 NE 1028,8 8 0 0,0
11.12.2018 02:00:00 2,3 1,1 6 3 10 6 NNW 1029,0 11 0 0,0

tt = Température de l'air
td = dewpoint
ff = Vitesse du vent
fx = gusts
dd = Direction du vent
ppp = reduced air pressure
vv = visibility
sd = Ensoleillement
rr = Quantités de précipitations

stations d'obs. à proximité